When you browse on this site, cookies collect data to enhance your experience and personalize the content and advertising you see.
Visit our Privacy Policy to learn more. By continuing to use the site, you agree to this use of cookies and data.
  • In Latvia
  • List of Countries
  • For 7 days
  • Water Temperature
  • Satellite Maps
  • Weather Map
  • Weather Widgets
  • user-avatar
    Login

    Hourly Weather Steffisburg

    Today, 18 July, Thursday

    Time Temperature Precipitation Wind Pressure Humidity
    00:00 +15°C° 0 mm 1 mps 694 mmHg 85%
    01:00 +15°C° 0 mm 1 mps 694 mmHg 84%
    02:00 +15°C° 0.1 mm 1 mps 694 mmHg 85%
    03:00 +15°C° 0.1 mm 1 mps 694 mmHg 85%
    04:00 +15°C° 0.1 mm 1 mps 693 mmHg 85%
    05:00 +16°C° 0 mm 1 mps 694 mmHg 83%
    06:00 +18°C° 0 mm 1 mps 694 mmHg 81%
    07:00 +19°C° 0 mm 1 mps 694 mmHg 79%
    08:00 +21°C° 0 mm 1 mps 695 mmHg 68%
    09:00 +23°C° 0 mm 1 mps 695 mmHg 58%
    10:00 +25°C° 0 mm 1 mps 696 mmHg 47%
    11:00 +25°C° 0 mm 1 mps 696 mmHg 45%
    12:00 +25°C° 0 mm 1 mps 695 mmHg 43%
    13:00 +26°C° 0 mm 2 mps 695 mmHg 41%
    14:00 +25°C° 0 mm 2 mps 695 mmHg 44%
    15:00 +25°C° 0 mm 2 mps 695 mmHg 48%
    16:00 +25°C° 0 mm 2 mps 695 mmHg 51%
    17:00 +24°C° 0 mm 2 mps 695 mmHg 59%
    18:00 +22°C° 0 mm 1 mps 695 mmHg 66%
    19:00 +21°C° 0 mm 1 mps 695 mmHg 74%
    20:00 +20°C° 0 mm 1 mps 695 mmHg 78%
    21:00 +18°C° 0 mm 1 mps 695 mmHg 81%
    22:00 +16°C° 0 mm 1 mps 696 mmHg 85%
    23:00 +15°C° 0 mm 1 mps 696 mmHg 85%

    Tomorrow, 19 July, Friday

    Time Temperature Precipitation Wind Pressure Humidity
    00:00 +15°C° 0 mm 1 mps 696 mmHg 85%
    01:00 +15°C° 0 mm 1 mps 696 mmHg 85%
    02:00 +14°C° 0 mm 1 mps 696 mmHg 86%
    03:00 +14°C° 0 mm 1 mps 696 mmHg 87%
    04:00 +14°C° 0 mm 1 mps 696 mmHg 88%
    05:00 +15°C° 0 mm 1 mps 696 mmHg 84%
    06:00 +16°C° 0 mm 0 mps 696 mmHg 81%
    07:00 +17°C° 0 mm 0 mps 697 mmHg 78%
    08:00 +19°C° 0 mm 0 mps 697 mmHg 72%
    09:00 +22°C° 0 mm 1 mps 697 mmHg 66%
    10:00 +24°C° 0 mm 1 mps 697 mmHg 60%
    11:00 +25°C° 0.1 mm 1 mps 697 mmHg 58%
    12:00 +25°C° 0.1 mm 2 mps 697 mmHg 57%
    13:00 +26°C° 0.1 mm 2 mps 697 mmHg 55%
    14:00 +26°C° 0.2 mm 2 mps 697 mmHg 57%
    15:00 +26°C° 0.2 mm 2 mps 697 mmHg 59%
    16:00 +26°C° 0.2 mm 2 mps 697 mmHg 61%
    17:00 +25°C° 0.2 mm 1 mps 697 mmHg 68%
    18:00 +24°C° 0.2 mm 1 mps 697 mmHg 74%
    19:00 +21°C° 0.2 mm 0 mps 697 mmHg 80%
    20:00 +19°C° 0 mm 0 mps 697 mmHg 84%
    21:00 +20°C° 0 mm 1 mps 697 mmHg 87%
    22:00 +18°C° 0 mm 1 mps 697 mmHg 90%
    23:00 +18°C° 0 mm 1 mps 697 mmHg 90%

    Day after tomorrow, 20 July, Saturday

    Time Temperature Precipitation Wind Pressure Humidity
    00:00 +16°C° 0 mm 1 mps 697 mmHg 89%
    01:00 +16°C° 0 mm 1 mps 697 mmHg 88%
    02:00 +16°C° 0 mm 1 mps 696 mmHg 88%
    03:00 +16°C° 0 mm 1 mps 696 mmHg 87%
    04:00 +16°C° 0 mm 1 mps 696 mmHg 86%
    05:00 +18°C° 0 mm 1 mps 697 mmHg 83%
    06:00 +19°C° 0 mm 1 mps 697 mmHg 80%
    07:00 +20°C° 0 mm 1 mps 697 mmHg 77%
    08:00 +23°C° 0 mm 1 mps 698 mmHg 69%
    09:00 +25°C° 0 mm 1 mps 698 mmHg 60%
    10:00 +27°C° 0 mm 1 mps 699 mmHg 52%
    11:00 +28°C° 0 mm 2 mps 699 mmHg 49%
    12:00 +29°C° 0 mm 2 mps 699 mmHg 45%
    13:00 +29°C° 0 mm 3 mps 699 mmHg 42%
    14:00 +29°C° 0.2 mm 3 mps 699 mmHg 43%
    15:00 +29°C° 0.2 mm 3 mps 699 mmHg 44%
    16:00 +29°C° 0.2 mm 3 mps 698 mmHg 45%
    17:00 +28°C° 0.1 mm 2 mps 698 mmHg 52%
    18:00 +26°C° 0.1 mm 1 mps 698 mmHg 60%
    19:00 +25°C° 0.1 mm 1 mps 698 mmHg 68%
    20:00 +24°C° 0 mm 1 mps 699 mmHg 68%
    21:00 +22°C° 0 mm 1 mps 699 mmHg 69%
    22:00 +20°C° 0 mm 2 mps 699 mmHg 69%
    23:00 +20°C° 0 mm 1 mps 699 mmHg 70%

    21 July, Sunday

    Time Temperature Precipitation Wind Pressure Humidity
    00:00 +20°C° 0 mm 1 mps 699 mmHg 70%
    01:00 +19°C° 0 mm 1 mps 699 mmHg 70%
    02:00 +19°C° 0 mm 1 mps 699 mmHg 72%
    03:00 +19°C° 0 mm 1 mps 699 mmHg 75%
    04:00 +18°C° 0 mm 1 mps 699 mmHg 77%
    05:00 +19°C° 0 mm 1 mps 700 mmHg 76%
    06:00 +20°C° 0 mm 1 mps 700 mmHg 75%
    07:00 +19°C° 0 mm 0 mps 701 mmHg 74%
    08:00 +23°C° 0 mm 1 mps 701 mmHg 68%
    09:00 +25°C° 0 mm 1 mps 701 mmHg 62%
    10:00 +27°C° 0 mm 1 mps 702 mmHg 56%
    11:00 +28°C° 0 mm 2 mps 702 mmHg 55%
    12:00 +28°C° 0 mm 2 mps 702 mmHg 53%
    13:00 +29°C° 0 mm 2 mps 702 mmHg 51%
    14:00 +29°C° 0.1 mm 2 mps 702 mmHg 50%
    15:00 +29°C° 0.1 mm 2 mps 702 mmHg 49%
    16:00 +29°C° 0.1 mm 2 mps 702 mmHg 48%
    17:00 +28°C° 0.1 mm 2 mps 701 mmHg 58%
    18:00 +26°C° 0.1 mm 1 mps 701 mmHg 68%
    19:00 +25°C° 0.1 mm 1 mps 701 mmHg 78%
    20:00 +23°C° 0 mm 1 mps 701 mmHg 80%
    21:00 +22°C° 0 mm 1 mps 701 mmHg 82%
    22:00 +20°C° 0 mm 1 mps 701 mmHg 84%
    23:00 +20°C° 0 mm 1 mps 701 mmHg 82%

    22 July, Monday

    Time Temperature Precipitation Wind Pressure Humidity
    00:00 +20°C° 0 mm 1 mps 701 mmHg 81%
    01:00 +19°C° 0 mm 1 mps 701 mmHg 79%
    02:00 +19°C° 0 mm 1 mps 701 mmHg 77%
    03:00 +19°C° 0 mm 1 mps 701 mmHg 75%
    04:00 +19°C° 0 mm 1 mps 701 mmHg 74%
    05:00 +20°C° 0 mm 1 mps 701 mmHg 72%
    06:00 +22°C° 0 mm 1 mps 701 mmHg 70%
    07:00 +21°C° 0 mm 0 mps 702 mmHg 69%
    08:00 +23°C° 0 mm 0 mps 702 mmHg 62%
    09:00 +27°C° 0 mm 1 mps 702 mmHg 56%
    10:00 +29°C° 0 mm 1 mps 703 mmHg 49%
    11:00 +30°C° 0 mm 1 mps 702 mmHg 46%
    12:00 +31°C° 0 mm 1 mps 702 mmHg 43%
    13:00 +32°C° 0 mm 2 mps 702 mmHg 40%
    14:00 +32°C° 0 mm 2 mps 702 mmHg 41%
    15:00 +32°C° 0 mm 2 mps 702 mmHg 41%
    16:00 +32°C° 0 mm 2 mps 702 mmHg 42%
    17:00 +31°C° 0 mm 1 mps 701 mmHg 51%
    18:00 +29°C° 0 mm 1 mps 701 mmHg 61%
    19:00 +28°C° 0 mm 1 mps 701 mmHg 70%
    20:00 +26°C° 0 mm 1 mps 701 mmHg 74%
    21:00 +24°C° 0 mm 1 mps 701 mmHg 77%
    22:00 +22°C° 0 mm 1 mps 701 mmHg 80%
    23:00 +22°C° 0 mm 1 mps 701 mmHg 80%

    23 July, Tuesday

    Time Temperature Precipitation Wind Pressure Humidity
    00:00 +21°C° 0 mm 1 mps 700 mmHg 79%
    01:00 +21°C° 0 mm 1 mps 700 mmHg 78%
    02:00 +21°C° 0 mm 1 mps 700 mmHg 77%
    03:00 +21°C° 0 mm 1 mps 700 mmHg 76%
    04:00 +20°C° 0 mm 1 mps 700 mmHg 76%
    05:00 +22°C° 0 mm 1 mps 700 mmHg 74%
    06:00 +23°C° 0 mm 1 mps 700 mmHg 72%
    07:00 +22°C° 0 mm 0 mps 700 mmHg 70%
    08:00 +26°C° 0 mm 1 mps 700 mmHg 64%
    09:00 +28°C° 0 mm 1 mps 700 mmHg 58%
    10:00 +30°C° 0 mm 1 mps 701 mmHg 52%
    11:00 +31°C° 0 mm 1 mps 701 mmHg 49%
    12:00 +32°C° 0 mm 1 mps 700 mmHg 46%
    13:00 +34°C° 0 mm 2 mps 700 mmHg 44%
    14:00 +34°C° 0.2 mm 2 mps 700 mmHg 45%
    15:00 +32°C° 0.2 mm 2 mps 700 mmHg 46%
    16:00 +32°C° 0.2 mm 2 mps 699 mmHg 47%
    17:00 +30°C° 0.6 mm 1 mps 699 mmHg 56%
    18:00 +29°C° 0.6 mm 1 mps 699 mmHg 64%
    19:00 +25°C° 0.6 mm 0 mps 698 mmHg 72%
    20:00 +26°C° 0 mm 1 mps 698 mmHg 74%
    21:00 +24°C° 0 mm 1 mps 698 mmHg 76%
    22:00 +23°C° 0 mm 1 mps 698 mmHg 77%
    23:00 +23°C° 0 mm 1 mps 698 mmHg 78%
    Show more